72P/Denning-Fujikawa (2023)

Japanese version
Home page
Updated on May 13, 2023

---------------------------------------------------------------------

* Profile

* Orbital Elements

Epoch 2023 Feb. 25.0 TT = JDT 2460000.5                                         
T 2023 June 15.77491 TT                                 Rudenko                 
q   0.7810236            (2000.0)            P               Q                  
n   0.11026772     Peri.  346.73423     +0.97075534     -0.22438912             
a   4.3069561      Node    26.70124     +0.23393719     +0.80431609             
e   0.8186599      Incl.   10.94884     +0.05392083     +0.55020464             
P   8.94                                                                        
>From 31 observations 2014 June 17-2023 May 10, mean residual 0".7.              

* Finding Charts

* Magnitudes Graph

        m1 = 17.5 + 5 log d + 23.0 log r

---------------------------------------------------------------------

The orbital elements are published on M.P.E.C. 2023-J95.
The charts are made with StellaNavigator Ver.11 (AstroArts).
The magnitudes graphs are made with Comet for Windows.

---------------------------------------------------------------------

Copyright(C) Seiichi Yoshida (comet@aerith.net). All rights reserved.